Location: Asheville, NC
(35.6000°N, 82.5500°W)
Time: 14:17:27
(UTC-04:00)

CUTE 1.7 + AOD 2 - Pass Details

Date: 04 January 2018
Orbit: 595 x 612 km, 97.5° (Epoch: 24 April)

Event Time Altitude Azimuth Distance (km) Brightness Sun altitude
Rises 18:42:25 0° 166° (SSE) 2,858 ? -14.3°
Reaches altitude 10° 18:44:35 10° 166° (SSE) 1,958 ? -14.7°
Maximum altitude 18:48:51 87° 79° (E) 617 ? -15.6°
Drops below altitude 10° 18:53:09 10° 349° (N) 1,972 ? -16.4°
Sets 18:55:20 0° 349° (N) 2,879 ? -16.8°
